Preview of NWS' New Version of Forecast
This preview is not operational and should not be used for support decisions.

Regional Weather Roundup (RWR)

Issued by National Weather Service (NWS)

                            
000
ASUS45 KABQ 250210
RWRNM 
NEW MEXICO REGIONAL WEATHER ROUNDUP
NATIONAL WEATHER SERVICE ALBUQUERQUE NM
800 PM MDT SAT AUG 24 2019

NOTE: "FAIR" MEANS FEW OR NO CLOUDS BELOW 12,000 FEET AGL WITH NO
       SIGNIFICANT WEATHER OR OBSTRUCTIONS TO VISION.

      THIS PRODUCT IS RELEASED AS TWO VERSIONS.  ONE VERSION NEAR
      THE TOP OF THE HOUR CONTAINING PRELIMINARY DATA FROM ALBUQUERQUE
      AND OTHER STATIONS.  A FINAL VERSION WITH ADDITIONAL DATA IS 
      ISSUED ABOUT 10 MINUTES AFTER THE HOUR.
 
NMZ501-503-504-510>518-250300-
NORTHWEST PLATEAU/NORTHCENTRAL MOUNTAINS
  
CITY           SKY/WX    TMP DP  RH WIND       PRES   REMARKS
FARMINGTON     FAIR      86  26  11 NW8       30.08R                  
LOS ALAMOS       N/A     79  24  13 W10       30.23R                  
SANTA FE       FAIR      80  27  14 NW9       30.14R                  
TAOS           FAIR      74  33  22 NW8       30.21R                  
ANGEL FIRE     FAIR      58  38  46 W6        30.31R                  

$$
NMZ402-403-502-505>509-250300-
WESTCENTRAL MOUNTAINS/SOUTHWEST MOUNTAINS
  
CITY           SKY/WX    TMP DP  RH WIND       PRES   REMARKS
GALLUP         FAIR      81  27  14 W9        30.20R                  
GRANTS         FAIR      80  29  15 W7        30.21R                  
SILVER CITY    FAIR      79  56  45 SW6       30.14S                  

$$
NMZ407-409-411-412-250300-
SOUTHERN DESERTS
  
CITY           SKY/WX    TMP DP  RH WIND       PRES   REMARKS
DEMING         FAIR      88  52  29 W12       30.04S                  
LAS CRUCES     FAIR      89  44  20 SW7       30.04S                  
HOLLOMAN AFB   FAIR      90  46  21 S5        30.01R                  
ALAMOGORDO     FAIR      84  41  21 S7        30.01R                  
T OR C         FAIR      91  43  18 SW10      30.03S                  

$$
NMZ519>523-250300-
CENTRAL VALLEYS/CENTRAL HIGHLANDS
  
CITY           SKY/WX    TMP DP  RH WIND       PRES   REMARKS
ALBUQUERQUE    FAIR      89  30  12 NW6       30.05R                  
DOUBLE EAGLE   PTCLDY    84  32  15 NW7       30.11R                  
MORIARTY ARPT  FAIR      76  32  19 NW5       30.15R                  
CLINES CORNERS FAIR      76  28  17 NW10      30.22R                  
BELEN          FAIR      89  28  11 W10       30.05R                  
SOCORRO        FAIR      90  36  14 SW9       30.03R                  

$$
NMZ524>526-539-540-250300-
SOUTHCENTRAL MOUNTAINS
  
CITY           SKY/WX    TMP DP  RH WIND       PRES   REMARKS
RUIDOSO        FAIR      75  37  25 W8        30.23S                  

$$
NMZ527>531-250300-
NORTHEAST HIGHLANDS/NORTHEAST PLAINS
  
CITY           SKY/WX    TMP DP  RH WIND       PRES   REMARKS
LAS VEGAS      FAIR      76  34  21 W8        30.17R                  
RATON          FAIR      74  47  38 NE12      30.10R                  
CLAYTON        FAIR      70  58  65 SE9       30.01F                  

$$
NMZ532>537-250300-
EASTCENTRAL PLAINS
  
CITY           SKY/WX    TMP DP  RH WIND       PRES   REMARKS
SANTA ROSA     FAIR      86  45  23 SW3       29.98R                  
TUCUMCARI      FAIR      82  54  37 S9        29.90S                  
CANNON AFB     FAIR      80  57  44 SE6       29.99R                  
CLOVIS AIRPORT FAIR      75  64  68 SE8       29.99R                  

$$
NMZ028-029-538-250300-
SOUTHEAST PLAINS
  
CITY           SKY/WX    TMP DP  RH WIND       PRES   REMARKS
ROSWELL        FAIR      94  49  21 S9        29.92R                  
ARTESIA        FAIR      93  54  26 S13       29.94R                  
CARLSBAD       FAIR      92  49  22 SE5       29.91R                  
HOBBS          FAIR      86  55  35 SE16G22   29.97R                  


$$